Location: Redwood City
(37.4850°N, 122.2350°W)
Time: 02:17:33
(UTC-07:00)

ISS - Visible Passes

Search period start: 23 April 2014 00:00
Search period end: 03 May 2014 00:00
Orbit: 413 x 418 km, 51.7° (Epoch: 23 April)

Date Brightness Start Highest point End Pass type
(mag) Time Alt. Az. Time Alt. Az. Time Alt. Az.
23 Apr -3.2 20:46:32 10° NW 20:49:53 68° NE 20:52:01 20° ESE visible
24 Apr -1.2 21:35:03 10° W 21:37:34 20° SW 21:38:19 18° SSW visible
25 Apr -2.1 20:45:43 10° WNW 20:48:50 36° SW 20:51:43 11° SSE visible
27 Apr -0.5 20:45:51 10° WSW 20:47:15 12° SW 20:48:39 10° SSW visible
